Station Historical Data
Daily Summary for September 21, 2017 Units:  Metric    English   Both
« Previous Day
Next Day »
Daily Weekly Monthly Yearly Custom
  High: Low: Average:
Temperature: 32.1 °C 18.9 °C 24.2 °C
Dew Point: 20.3 °C 17.2 °C 19 °C
Humidity: 94% 44% 75%
Wind Speed: 9.7km/h 4.8km/h 6.4km/h
Wind Gust: 9.7km/h - -
Wind- - South
Pressure: 1018.5 hPa 1015.1 hPa -
Precipitation: 0 mm    
Historical Graphs
 
 
Tabular Data for September 21, 2017
Time Temperature Dew Point Pressure Wind Wind Speed Wind Gust Humidity Rainfall Rate (Hourly) solar Conditions
00:00 22.6 °C 19.6 °C 1016.8 hPa NNW 4.8 km/h 4.8 km/h 83% 0 mm WeatherDisplay:10.37 W/m2 FEW
00:05 22.6 °C 19.5 °C 1016.8 hPa NNW 4.8 km/h 4.8 km/h 83% 0 mm WeatherDisplay:10.37 W/m2 FEW
00:10 22.3 °C 19.5 °C 1017.2 hPa NNW 4.8 km/h 4.8 km/h 84% 0 mm WeatherDisplay:10.37 W/m2 FEW
00:15 22.1 °C 19.3 °C 1016.8 hPa NW 4.8 km/h 4.8 km/h 84% 0 mm WeatherDisplay:10.37 W/m2 CLR
00:20 22 °C 19.3 °C 1016.8 hPa WNW 4.8 km/h 4.8 km/h 85% 0 mm WeatherDisplay:10.37 W/m2 CLR
00:25 21.8 °C 19.2 °C 1016.8 hPa WNW 4.8 km/h 4.8 km/h 85% 0 mm WeatherDisplay:10.37 W/m2 CLR
00:30 21.8 °C 19.3 °C 1016.8 hPa WNW 4.8 km/h 4.8 km/h 86% 0 mm WeatherDisplay:10.37 W/m2 CLR
00:35 21.6 °C 19.2 °C 1016.8 hPa WNW 4.8 km/h 4.8 km/h 86% 0 mm WeatherDisplay:10.37 W/m2 CLR
00:40 21.4 °C 19 °C 1016.8 hPa WNW 4.8 km/h 4.8 km/h 86% 0 mm WeatherDisplay:10.37 W/m2 CLR
00:45 21.4 °C 19.1 °C 1016.8 hPa WNW 4.8 km/h 4.8 km/h 87% 0 mm WeatherDisplay:10.37 W/m2 CLR
00:50 21.3 °C 19 °C 1016.8 hPa WNW 4.8 km/h 4.8 km/h 87% 0 mm WeatherDisplay:10.37 W/m2 CLR
00:55 21.2 °C 18.9 °C 1016.8 hPa WNW 4.8 km/h 4.8 km/h 87% 0 mm WeatherDisplay:10.37 W/m2 CLR
01:00 21.1 °C 19 °C 1016.8 hPa WNW 4.8 km/h 4.8 km/h 88% 0 mm WeatherDisplay:10.37 W/m2 CLR
01:10 20.9 °C 19.1 °C 1016.8 hPa WNW 4.8 km/h 4.8 km/h 89% 0 mm WeatherDisplay:10.37 W/m2 CLR
01:15 20.9 °C 19 °C 1016.8 hPa WNW 4.8 km/h 4.8 km/h 89% 0 mm WeatherDisplay:10.37 W/m2 CLR
01:20 20.9 °C 19 °C 1016.8 hPa West 4.8 km/h 4.8 km/h 89% 0 mm WeatherDisplay:10.37 W/m2 CLR
01:25 20.8 °C 18.9 °C 1016.8 hPa West 4.8 km/h 4.8 km/h 89% 0 mm WeatherDisplay:10.37 W/m2 CLR
01:30 20.8 °C 18.9 °C 1016.8 hPa West 4.8 km/h 4.8 km/h 89% 0 mm WeatherDisplay:10.37 W/m2 CLR
01:35 20.8 °C 19.1 °C 1016.8 hPa West 4.8 km/h 4.8 km/h 90% 0 mm WeatherDisplay:10.37 W/m2 CLR
01:40 20.8 °C 19.1 °C 1016.8 hPa West 4.8 km/h 4.8 km/h 90% 0 mm WeatherDisplay:10.37 W/m2 CLR
01:45 20.9 °C 19.2 °C 1016.8 hPa West 4.8 km/h 4.8 km/h 90% 0 mm WeatherDisplay:10.37 W/m2 CLR
01:50 20.8 °C 18.9 °C 1016.8 hPa West 4.8 km/h 4.8 km/h 89% 0 mm WeatherDisplay:10.37 W/m2 CLR
02:00 20.7 °C 19 °C 1016.8 hPa West 4.8 km/h 4.8 km/h 90% 0 mm WeatherDisplay:10.37 W/m2 CLR
02:05 20.7 °C 18.9 °C 1016.8 hPa West 4.8 km/h 4.8 km/h 90% 0 mm WeatherDisplay:10.37 W/m2 CLR
02:10 20.7 °C 19 °C 1016.5 hPa West 4.8 km/h 4.8 km/h 90% 0 mm WeatherDisplay:10.37 W/m2 CLR
02:15 20.7 °C 19 °C 1016.5 hPa West 4.8 km/h 4.8 km/h 90% 0 mm WeatherDisplay:10.37 W/m2 CLR
02:20 20.6 °C 18.9 °C 1016.5 hPa West 4.8 km/h 4.8 km/h 90% 0 mm WeatherDisplay:10.37 W/m2 CLR
02:25 20.6 °C 18.8 °C 1016.5 hPa West 4.8 km/h 4.8 km/h 90% 0 mm WeatherDisplay:10.37 W/m2 CLR
02:30 20.5 °C 18.8 °C 1016.5 hPa West 4.8 km/h 4.8 km/h 90% 0 mm WeatherDisplay:10.37 W/m2 CLR
02:35 20.5 °C 18.8 °C 1016.5 hPa West 4.8 km/h 4.8 km/h 90% 0 mm WeatherDisplay:10.37 W/m2 CLR
02:40 20.4 °C 18.7 °C 1016.5 hPa West 4.8 km/h 4.8 km/h 90% 0 mm WeatherDisplay:10.37 W/m2 CLR
02:45 20.4 °C 18.7 °C 1016.5 hPa West 4.8 km/h 4.8 km/h 90% 0 mm WeatherDisplay:10.37 W/m2 CLR
02:50 20.3 °C 18.6 °C 1016.5 hPa West 4.8 km/h 4.8 km/h 90% 0 mm WeatherDisplay:10.37 W/m2 CLR
03:00 20.2 °C 18.6 °C 1016.5 hPa West 4.8 km/h 4.8 km/h 90% 0 mm WeatherDisplay:10.37 W/m2 CLR
03:05 20.2 °C 18.5 °C 1016.5 hPa West 4.8 km/h 4.8 km/h 90% 0 mm WeatherDisplay:10.37 W/m2 CLR
03:10 20.2 °C 18.7 °C 1016.5 hPa West 4.8 km/h 4.8 km/h 91% 0 mm WeatherDisplay:10.37 W/m2 CLR
03:15 20.2 °C 18.7 °C 1016.5 hPa West 4.8 km/h 4.8 km/h 91% 0 mm WeatherDisplay:10.37 W/m2 CLR
03:20 20.2 °C 18.7 °C 1016.5 hPa West 4.8 km/h 4.8 km/h 91% 0 mm WeatherDisplay:10.37 W/m2 CLR
03:25 20.2 °C 18.7 °C 1016.5 hPa West 4.8 km/h 4.8 km/h 91% 0 mm WeatherDisplay:10.37 W/m2 CLR
03:30 20.2 °C 18.7 °C 1016.5 hPa West 4.8 km/h 4.8 km/h 91% 0 mm WeatherDisplay:10.37 W/m2 CLR
03:40 20.2 °C 18.7 °C 1016.5 hPa West 4.8 km/h 4.8 km/h 91% 0 mm WeatherDisplay:10.37 W/m2 CLR
03:45 20.1 °C 18.6 °C 1016.5 hPa West 4.8 km/h 4.8 km/h 91% 0 mm WeatherDisplay:10.37 W/m2 CLR
03:50 19.9 °C 18.4 °C 1016.5 hPa West 4.8 km/h 4.8 km/h 91% 0 mm WeatherDisplay:10.37 W/m2 CLR
03:55 19.9 °C 18.4 °C 1016.5 hPa West 4.8 km/h 4.8 km/h 91% 0 mm WeatherDisplay:10.37 W/m2 CLR
04:00 19.8 °C 18.3 °C 1016.5 hPa West 4.8 km/h 4.8 km/h 91% 0 mm WeatherDisplay:10.37 W/m2 CLR
04:05 19.8 °C 18.3 °C 1016.5 hPa West 4.8 km/h 4.8 km/h 91% 0 mm WeatherDisplay:10.37 W/m2 CLR
04:10 19.8 °C 18.3 °C 1016.5 hPa West 4.8 km/h 4.8 km/h 91% 0 mm WeatherDisplay:10.37 W/m2 CLR
04:15 19.8 °C 18.3 °C 1016.5 hPa West 4.8 km/h 4.8 km/h 91% 0 mm WeatherDisplay:10.37 W/m2 CLR
04:20 19.7 °C 18.2 °C 1016.5 hPa West 4.8 km/h 4.8 km/h 91% 0 mm WeatherDisplay:10.37 W/m2 CLR
04:25 19.7 °C 18.2 °C 1016.5 hPa West 4.8 km/h 4.8 km/h 91% 0 mm WeatherDisplay:10.37 W/m2 CLR
04:30 19.7 °C 18.2 °C 1016.5 hPa West 4.8 km/h 4.8 km/h 91% 0 mm WeatherDisplay:10.37 W/m2 CLR
04:40 19.6 °C 18.3 °C 1016.5 hPa West 4.8 km/h 4.8 km/h 92% 0 mm WeatherDisplay:10.37 W/m2 CLR
04:45 19.6 °C 18.2 °C 1016.5 hPa West 4.8 km/h 4.8 km/h 92% 0 mm WeatherDisplay:10.37 W/m2 CLR
04:50 19.6 °C 18.2 °C 1016.8 hPa West 4.8 km/h 4.8 km/h 92% 0 mm WeatherDisplay:10.37 W/m2 CLR
04:55 19.5 °C 18.2 °C 1016.8 hPa West 4.8 km/h 4.8 km/h 92% 0 mm WeatherDisplay:10.37 W/m2 CLR
05:00 19.4 °C 18.1 °C 1016.8 hPa West 4.8 km/h 4.8 km/h 92% 0 mm WeatherDisplay:10.37 W/m2 CLR
05:05 19.4 °C 18.1 °C 1016.8 hPa West 4.8 km/h 4.8 km/h 92% 0 mm WeatherDisplay:10.37 W/m2 CLR
05:10 19.4 °C 18.1 °C 1016.8 hPa West 4.8 km/h 4.8 km/h 92% 0 mm WeatherDisplay:10.37 W/m2 CLR
05:15 19.4 °C 18.1 °C 1016.8 hPa West 4.8 km/h 4.8 km/h 92% 0 mm WeatherDisplay:10.37 W/m2 CLR
05:20 19.4 °C 18.1 °C 1017.2 hPa West 4.8 km/h 4.8 km/h 92% 0 mm WeatherDisplay:10.37 W/m2 CLR
05:25 19.4 °C 18.1 °C 1017.2 hPa West 4.8 km/h 4.8 km/h 92% 0 mm WeatherDisplay:10.37 W/m2 CLR
05:30 19.4 °C 18.1 °C 1017.2 hPa West 4.8 km/h 4.8 km/h 92% 0 mm WeatherDisplay:10.37 W/m2 CLR
05:35 19.3 °C 18 °C 1017.2 hPa West 4.8 km/h 4.8 km/h 92% 0 mm WeatherDisplay:10.37 W/m2 CLR
05:40 19.3 °C 17.9 °C 1017.2 hPa West 4.8 km/h 4.8 km/h 92% 0 mm WeatherDisplay:10.37 W/m2 CLR
05:45 19.3 °C 17.9 °C 1017.2 hPa West 4.8 km/h 4.8 km/h 92% 0 mm WeatherDisplay:10.37 W/m2 CLR
05:50 19.3 °C 17.9 °C 1017.2 hPa West 4.8 km/h 4.8 km/h 92% 0 mm WeatherDisplay:10.37 W/m2 CLR
05:55 19.2 °C 17.9 °C 1017.5 hPa West 4.8 km/h 4.8 km/h 92% 0 mm WeatherDisplay:10.37 W/m2 CLR
06:00 19.2 °C 17.8 °C 1017.5 hPa West 4.8 km/h 4.8 km/h 92% 0 mm WeatherDisplay:10.37 W/m2 CLR
06:05 19.2 °C 17.8 °C 1017.5 hPa West 4.8 km/h 4.8 km/h 92% 0 mm WeatherDisplay:10.37 W/m2 CLR
06:10 19.2 °C 17.9 °C 1017.5 hPa West 4.8 km/h 4.8 km/h 92% 0 mm WeatherDisplay:10.37 W/m2 CLR
06:15 19.3 °C 17.9 °C 1017.5 hPa West 4.8 km/h 4.8 km/h 92% 0 mm WeatherDisplay:10.37 W/m2 CLR
06:20 19.3 °C 18.1 °C 1017.5 hPa West 4.8 km/h 4.8 km/h 93% 0 mm WeatherDisplay:10.37 W/m2 CLR
06:25 19.3 °C 18.2 °C 1017.5 hPa West 4.8 km/h 4.8 km/h 93% 0 mm WeatherDisplay:10.37 W/m2 CLR
06:30 19.4 °C 18.2 °C 1017.5 hPa West 4.8 km/h 4.8 km/h 93% 0 mm WeatherDisplay:10.37 W/m2 CLR
06:35 19.4 °C 18.2 °C 1017.5 hPa West 4.8 km/h 4.8 km/h 93% 0 mm WeatherDisplay:10.37 W/m2 CLR
06:40 19.4 °C 18.2 °C 1017.8 hPa West 4.8 km/h 4.8 km/h 93% 0 mm WeatherDisplay:10.37 W/m2 CLR
06:45 19.4 °C 18.2 °C 1017.8 hPa West 4.8 km/h 4.8 km/h 93% 0 mm WeatherDisplay:10.37 W/m2 CLR
06:50 19.4 °C 18.2 °C 1017.5 hPa West 4.8 km/h 4.8 km/h 93% 0 mm WeatherDisplay:10.37 W/m2 CLR
07:00 19.2 °C 17.8 °C 1017.8 hPa West 4.8 km/h 4.8 km/h 92% 0 mm WeatherDisplay:10.37 W/m2 CLR
07:05 19.1 °C 17.8 °C 1017.8 hPa West 4.8 km/h 4.8 km/h 92% 0 mm WeatherDisplay:10.37 W/m2 CLR
07:10 19.1 °C 17.7 °C 1017.8 hPa West 4.8 km/h 4.8 km/h 92% 0 mm WeatherDisplay:10.37 W/m2 CLR
07:15 19 °C 17.7 °C 1017.8 hPa West 4.8 km/h 4.8 km/h 92% 0 mm WeatherDisplay:10.37 W/m2 FEW
07:20 19 °C 17.8 °C 1017.8 hPa West 4.8 km/h 4.8 km/h 93% 0 mm WeatherDisplay:10.37 W/m2 FEW
07:25 19 °C 17.8 °C 1018.2 hPa West 4.8 km/h 4.8 km/h 93% 0 mm WeatherDisplay:10.37 W/m2 FEW
07:30 18.9 °C 17.8 °C 1018.2 hPa West 4.8 km/h 4.8 km/h 93% 0 mm WeatherDisplay:10.37 W/m2 FEW
07:35 18.9 °C 17.8 °C 1018.2 hPa West 4.8 km/h 4.8 km/h 93% 0 mm WeatherDisplay:10.37 W/m2 FEW
07:40 18.9 °C 17.8 °C 1018.2 hPa West 4.8 km/h 4.8 km/h 93% 0 mm WeatherDisplay:10.37 W/m2 FEW
07:45 18.9 °C 17.8 °C 1018.2 hPa West 4.8 km/h 4.8 km/h 93% 0 mm WeatherDisplay:10.37 W/m2 FEW
07:50 18.9 °C 17.8 °C 1018.2 hPa West 4.8 km/h 4.8 km/h 93% 0 mm WeatherDisplay:10.37 W/m2 FEW
07:55 18.9 °C 17.7 °C 1018.2 hPa West 4.8 km/h 4.8 km/h 93% 0 mm WeatherDisplay:10.37 W/m2 FEW
08:00 18.9 °C 17.8 °C 1018.2 hPa West 4.8 km/h 4.8 km/h 93% 0 mm WeatherDisplay:10.37 W/m2 FEW
08:10 19.1 °C 17.9 °C 1018.2 hPa West 4.8 km/h 4.8 km/h 93% 0 mm WeatherDisplay:10.37 W/m2 FEW
08:20 19.3 °C 18.1 °C 1018.2 hPa West 4.8 km/h 4.8 km/h 93% 0 mm WeatherDisplay:10.37 W/m2 CLR
08:25 19.4 °C 18.3 °C 1018.5 hPa West 4.8 km/h 4.8 km/h 93% 0 mm WeatherDisplay:10.37 W/m2 CLR
08:30 19.6 °C 18.6 °C 1018.5 hPa West 4.8 km/h 4.8 km/h 94% 0 mm WeatherDisplay:10.37 W/m2 CLR
08:35 19.8 °C 18.8 °C 1018.5 hPa West 4.8 km/h 4.8 km/h 94% 0 mm WeatherDisplay:10.37 W/m2 CLR
08:40 19.9 °C 18.9 °C 1018.5 hPa West 4.8 km/h 4.8 km/h 94% 0 mm WeatherDisplay:10.37 W/m2 CLR
08:45 20 °C 19 °C 1018.5 hPa West 4.8 km/h 4.8 km/h 94% 0 mm WeatherDisplay:10.37 W/m2 CLR
08:50 20.2 °C 19.2 °C 1018.5 hPa West 4.8 km/h 4.8 km/h 94% 0 mm WeatherDisplay:10.37 W/m2 CLR
08:55 20.3 °C 19.1 °C 1018.5 hPa West 4.8 km/h 4.8 km/h 93% 0 mm WeatherDisplay:10.37 W/m2 CLR
09:00 20.3 °C 19.2 °C 1018.5 hPa West 4.8 km/h 4.8 km/h 93% 0 mm WeatherDisplay:10.37 W/m2 CLR
09:10 20.6 °C 19.4 °C 1018.5 hPa West 4.8 km/h 4.8 km/h 93% 0 mm WeatherDisplay:10.37 W/m2 CLR
09:15 20.8 °C 19.6 °C 1018.5 hPa West 4.8 km/h 4.8 km/h 93% 0 mm WeatherDisplay:10.37 W/m2 CLR
09:20 21.1 °C 19.8 °C 1018.5 hPa West 4.8 km/h 4.8 km/h 93% 0 mm WeatherDisplay:10.37 W/m2 CLR
09:25 21.2 °C 19.9 °C 1018.5 hPa West 4.8 km/h 4.8 km/h 92% 0 mm WeatherDisplay:10.37 W/m2 CLR
09:30 21.4 °C 19.9 °C 1018.5 hPa West 4.8 km/h 4.8 km/h 91% 0 mm WeatherDisplay:10.37 W/m2 CLR
09:35 21.7 °C 20 °C 1018.5 hPa West 4.8 km/h 4.8 km/h 90% 0 mm WeatherDisplay:10.37 W/m2 CLR
09:40 22 °C 20.1 °C 1018.5 hPa West 4.8 km/h 4.8 km/h 89% 0 mm WeatherDisplay:10.37 W/m2 CLR
09:45 22.3 °C 20.2 °C 1018.5 hPa West 4.8 km/h 4.8 km/h 88% 0 mm WeatherDisplay:10.37 W/m2 CLR
09:50 22.6 °C 20.1 °C 1018.5 hPa West 4.8 km/h 4.8 km/h 86% 0 mm WeatherDisplay:10.37 W/m2 CLR
09:55 22.8 °C 19.8 °C 1018.5 hPa West 4.8 km/h 4.8 km/h 83% 0 mm WeatherDisplay:10.37 W/m2 CLR
10:00 23.1 °C 19.8 °C 1018.5 hPa West 4.8 km/h 4.8 km/h 82% 0 mm WeatherDisplay:10.37 W/m2 CLR
10:05 23.4 °C 19.9 °C 1018.5 hPa West 4.8 km/h 4.8 km/h 81% 0 mm WeatherDisplay:10.37 W/m2 CLR
10:10 23.7 °C 20 °C 1018.5 hPa West 4.8 km/h 4.8 km/h 80% 0 mm WeatherDisplay:10.37 W/m2 CLR
10:15 23.9 °C 20 °C 1018.5 hPa NNE 4.8 km/h 4.8 km/h 79% 0 mm WeatherDisplay:10.37 W/m2 CLR
10:20 24.1 °C 19.8 °C 1018.5 hPa ENE 4.8 km/h 4.8 km/h 77% 0 mm WeatherDisplay:10.37 W/m2 CLR
10:25 24.3 °C 19.8 °C 1018.5 hPa ENE 4.8 km/h 4.8 km/h 76% 0 mm WeatherDisplay:10.37 W/m2 CLR
10:30 24.5 °C 20 °C 1018.5 hPa ENE 4.8 km/h 4.8 km/h 76% 0 mm WeatherDisplay:10.37 W/m2 CLR
10:40 25.1 °C 20.2 °C 1018.5 hPa ENE 4.8 km/h 4.8 km/h 74% 0 mm WeatherDisplay:10.37 W/m2 CLR
10:45 25.6 °C 20.2 °C 1018.5 hPa ENE 4.8 km/h 4.8 km/h 72% 0 mm WeatherDisplay:10.37 W/m2 CLR
10:50 25.8 °C 19.7 °C 1018.5 hPa ENE 4.8 km/h 4.8 km/h 69% 0 mm WeatherDisplay:10.37 W/m2 CLR
10:55 26.2 °C 19.8 °C 1018.5 hPa ENE 4.8 km/h 4.8 km/h 68% 0 mm WeatherDisplay:10.37 W/m2 CLR
11:00 26.6 °C 20 °C 1018.5 hPa ENE 4.8 km/h 4.8 km/h 67% 0 mm WeatherDisplay:10.37 W/m2 CLR
11:05 27.3 °C 19.6 °C 1018.5 hPa ENE 4.8 km/h 4.8 km/h 63% 0 mm WeatherDisplay:10.37 W/m2 CLR
11:10 28.1 °C 19.9 °C 1018.5 hPa ENE 4.8 km/h 4.8 km/h 61% 0 mm WeatherDisplay:10.37 W/m2 CLR
11:15 28.4 °C 19.4 °C 1018.2 hPa East 8 km/h 8 km/h 58% 0 mm WeatherDisplay:10.37 W/m2 CLR
11:20 28.5 °C 19.1 °C 1018.5 hPa East 8 km/h 8 km/h 57% 0 mm WeatherDisplay:10.37 W/m2 CLR
11:25 29 °C 20.2 °C 1018.2 hPa East 8 km/h 8 km/h 59% 0 mm WeatherDisplay:10.37 W/m2 CLR
11:30 29.3 °C 19.9 °C 1018.2 hPa East 8 km/h 8 km/h 57% 0 mm WeatherDisplay:10.37 W/m2 CLR
11:40 29.4 °C 19.4 °C 1018.2 hPa East 8 km/h 8 km/h 55% 0 mm WeatherDisplay:10.37 W/m2 CLR
11:45 29.6 °C 19.3 °C 1018.2 hPa East 8 km/h 8 km/h 54% 0 mm WeatherDisplay:10.37 W/m2 CLR
11:50 30 °C 19.7 °C 1018.2 hPa East 8 km/h 8 km/h 54% 0 mm WeatherDisplay:10.37 W/m2 CLR
12:00 29.9 °C 19.3 °C 1018.2 hPa East 8 km/h 8 km/h 53% 0 mm WeatherDisplay:10.37 W/m2 CLR
12:05 30.1 °C 19.8 °C 1018.2 hPa East 8 km/h 8 km/h 54% 0 mm WeatherDisplay:10.37 W/m2 CLR
12:10 30.4 °C 20.3 °C 1018.5 hPa East 8 km/h 8 km/h 55% 0 mm WeatherDisplay:10.37 W/m2 CLR
12:15 30.6 °C 19.3 °C 1018.2 hPa East 8 km/h 8 km/h 51% 0 mm WeatherDisplay:10.37 W/m2 FEW
12:20 30.8 °C 19.2 °C 1018.2 hPa East 8 km/h 8 km/h 50% 0 mm WeatherDisplay:10.37 W/m2 FEW
12:30 31 °C 19.7 °C 1018.2 hPa East 8 km/h 8 km/h 51% 0 mm WeatherDisplay:10.37 W/m2 FEW
12:35 31.1 °C 19.7 °C 1018.2 hPa East 8 km/h 8 km/h 51% 0 mm WeatherDisplay:10.37 W/m2 FEW
12:40 31.2 °C 19.6 °C 1018.2 hPa East 8 km/h 8 km/h 50% 0 mm WeatherDisplay:10.37 W/m2 FEW
12:45 31.3 °C 19.9 °C 1018.2 hPa East 8 km/h 8 km/h 51% 0 mm WeatherDisplay:10.37 W/m2 FEW
12:50 31.7 °C 19.7 °C 1018.2 hPa East 8 km/h 8 km/h 49% 0 mm WeatherDisplay:10.37 W/m2 FEW
12:55 31.8 °C 18.4 °C 1017.8 hPa East 8 km/h 8 km/h 45% 0 mm WeatherDisplay:10.37 W/m2 FEW
13:00 31.6 °C 18.2 °C 1017.8 hPa East 8 km/h 8 km/h 45% 0 mm WeatherDisplay:10.37 W/m2 FEW
13:05 31.2 °C 19.5 °C 1017.8 hPa East 8 km/h 8 km/h 50% 0 mm WeatherDisplay:10.37 W/m2 FEW
13:10 31.1 °C 18.4 °C 1017.8 hPa East 8 km/h 8 km/h 47% 0 mm WeatherDisplay:10.37 W/m2 FEW
13:15 30.7 °C 18.7 °C 1017.8 hPa East 8 km/h 8 km/h 49% 0 mm WeatherDisplay:10.37 W/m2 FEW
13:20 30.7 °C 19.1 °C 1017.5 hPa ENE 8 km/h 8 km/h 50% 0 mm WeatherDisplay:10.37 W/m2 FEW
13:25 30.7 °C 18.4 °C 1017.5 hPa ENE 8 km/h 8 km/h 48% 0 mm WeatherDisplay:10.37 W/m2 FEW
13:30 30.5 °C 18.9 °C 1017.5 hPa ENE 8 km/h 8 km/h 50% 0 mm WeatherDisplay:10.37 W/m2 FEW
13:40 30.8 °C 19.4 °C 1017.2 hPa ENE 8 km/h 8 km/h 51% 0 mm WeatherDisplay:10.37 W/m2 FEW
13:45 31.1 °C 19.1 °C 1017.2 hPa ENE 8 km/h 8 km/h 49% 0 mm WeatherDisplay:10.37 W/m2 FEW
13:50 31.2 °C 19.2 °C 1017.2 hPa ENE 8 km/h 8 km/h 49% 0 mm WeatherDisplay:10.37 W/m2 FEW
13:55 31.4 °C 19.1 °C 1017.2 hPa ENE 8 km/h 8 km/h 48% 0 mm WeatherDisplay:10.37 W/m2 FEW
14:00 31.7 °C 18.7 °C 1017.2 hPa ENE 8 km/h 8 km/h 46% 0 mm WeatherDisplay:10.37 W/m2 FEW
14:10 31.9 °C 19.2 °C 1016.8 hPa ENE 8 km/h 8 km/h 47% 0 mm WeatherDisplay:10.37 W/m2 FEW
14:15 32.1 °C 18.3 °C 1016.8 hPa ENE 8 km/h 8 km/h 44% 0 mm WeatherDisplay:10.37 W/m2 SCT
14:20 32 °C 18.6 °C 1016.8 hPa ENE 8 km/h 8 km/h 45% 0 mm WeatherDisplay:10.37 W/m2 SCT
14:25 31.9 °C 18.6 °C 1016.8 hPa ENE 8 km/h 8 km/h 45% 0 mm WeatherDisplay:10.37 W/m2 SCT
14:30 31.8 °C 18.4 °C 1016.8 hPa ENE 8 km/h 8 km/h 45% 0 mm WeatherDisplay:10.37 W/m2 SCT
14:35 31.6 °C 18.5 °C 1016.5 hPa ENE 8 km/h 8 km/h 46% 0 mm WeatherDisplay:10.37 W/m2 SCT
14:40 31.1 °C 18.5 °C 1016.5 hPa ENE 8 km/h 8 km/h 47% 0 mm WeatherDisplay:10.37 W/m2 SCT
14:45 30.4 °C 19.2 °C 1016.5 hPa ENE 8 km/h 8 km/h 51% 0 mm WeatherDisplay:10.37 W/m2 SCT
14:50 29.9 °C 19.3 °C 1016.5 hPa ENE 8 km/h 8 km/h 53% 0 mm WeatherDisplay:10.37 W/m2 SCT
14:55 29.4 °C 18.9 °C 1016.5 hPa ENE 8 km/h 8 km/h 53% 0 mm WeatherDisplay:10.37 W/m2 SCT
15:00 29.9 °C 19.3 °C 1016.5 hPa ENE 8 km/h 8 km/h 53% 0 mm WeatherDisplay:10.37 W/m2 SCT
15:05 30.6 °C 19.2 °C 1016.5 hPa ENE 8 km/h 8 km/h 51% 0 mm WeatherDisplay:10.37 W/m2 SCT
15:10 30.7 °C 19.1 °C 1016.1 hPa ENE 8 km/h 8 km/h 50% 0 mm WeatherDisplay:10.37 W/m2 SCT
15:15 30.8 °C 18.2 °C 1016.1 hPa ESE 4.8 km/h 8 km/h 47% 0 mm WeatherDisplay:10.37 W/m2 SCT
15:20 30.9 °C 18.7 °C 1016.1 hPa SE 4.8 km/h 4.8 km/h 48% 0 mm WeatherDisplay:10.37 W/m2 SCT
15:25 30.6 °C 18.6 °C 1016.1 hPa SE 4.8 km/h 4.8 km/h 49% 0 mm WeatherDisplay:10.37 W/m2 SCT
15:30 30.2 °C 18.3 °C 1016.1 hPa SE 4.8 km/h 4.8 km/h 49% 0 mm WeatherDisplay:10.37 W/m2 SCT
15:35 30.1 °C 17.8 °C 1016.1 hPa SE 4.8 km/h 4.8 km/h 48% 0 mm WeatherDisplay:10.37 W/m2 SCT
15:40 29.9 °C 18.4 °C 1016.1 hPa SE 4.8 km/h 4.8 km/h 50% 0 mm WeatherDisplay:10.37 W/m2 SCT
15:45 29.9 °C 17.4 °C 1016.1 hPa SE 4.8 km/h 4.8 km/h 47% 0 mm WeatherDisplay:10.37 W/m2 SCT
15:50 30.1 °C 17.5 °C 1016.1 hPa SE 4.8 km/h 4.8 km/h 47% 0 mm WeatherDisplay:10.37 W/m2 SCT
15:55 30.1 °C 17.2 °C 1015.8 hPa SE 4.8 km/h 4.8 km/h 46% 0 mm WeatherDisplay:10.37 W/m2 SCT
16:00 30.1 °C 17.6 °C 1015.8 hPa SE 4.8 km/h 4.8 km/h 47% 0 mm WeatherDisplay:10.37 W/m2 SCT
16:05 30.1 °C 18.2 °C 1015.8 hPa SE 4.8 km/h 4.8 km/h 49% 0 mm WeatherDisplay:10.37 W/m2 SCT
16:10 30.1 °C 17.2 °C 1015.8 hPa SE 4.8 km/h 4.8 km/h 46% 0 mm WeatherDisplay:10.37 W/m2 SCT
16:15 30.2 °C 18.3 °C 1015.5 hPa SSW 4.8 km/h 4.8 km/h 49% 0 mm WeatherDisplay:10.37 W/m2 BKN
16:20 30.3 °C 17.3 °C 1015.5 hPa WSW 4.8 km/h 4.8 km/h 46% 0 mm WeatherDisplay:10.37 W/m2 BKN
16:25 30.3 °C 18.1 °C 1015.5 hPa WSW 4.8 km/h 4.8 km/h 48% 0 mm WeatherDisplay:10.37 W/m2 BKN
16:30 30.3 °C 18.7 °C 1015.5 hPa WSW 4.8 km/h 4.8 km/h 50% 0 mm WeatherDisplay:10.37 W/m2 BKN
16:40 30.2 °C 17.6 °C 1015.5 hPa WSW 4.8 km/h 4.8 km/h 47% 0 mm WeatherDisplay:10.37 W/m2 BKN
16:45 30.2 °C 18.3 °C 1015.5 hPa WSW 4.8 km/h 4.8 km/h 49% 0 mm WeatherDisplay:10.37 W/m2 BKN
16:50 30.2 °C 18 °C 1015.5 hPa WSW 4.8 km/h 4.8 km/h 48% 0 mm WeatherDisplay:10.37 W/m2 BKN
17:00 30.3 °C 17.7 °C 1015.5 hPa WSW 4.8 km/h 4.8 km/h 47% 0 mm WeatherDisplay:10.37 W/m2 BKN
17:05 30.1 °C 18.2 °C 1015.5 hPa WSW 4.8 km/h 4.8 km/h 49% 0 mm WeatherDisplay:10.37 W/m2 BKN
17:10 29.7 °C 18.5 °C 1015.5 hPa WSW 4.8 km/h 4.8 km/h 51% 0 mm WeatherDisplay:10.37 W/m2 BKN
17:15 29.4 °C 18.8 °C 1015.5 hPa NW 9.7 km/h 9.7 km/h 53% 0 mm WeatherDisplay:10.37 W/m2 BKN
17:20 29.1 °C 19.1 °C 1015.5 hPa North 9.7 km/h 9.7 km/h 55% 0 mm WeatherDisplay:10.37 W/m2 BKN
17:25 28.6 °C 19.3 °C 1015.1 hPa North 9.7 km/h 9.7 km/h 57% 0 mm WeatherDisplay:10.37 W/m2 BKN
17:30 28.2 °C 19.4 °C 1015.5 hPa North 9.7 km/h 9.7 km/h 59% 0 mm WeatherDisplay:10.37 W/m2 BKN
17:35 27.8 °C 19.3 °C 1015.5 hPa North 9.7 km/h 9.7 km/h 60% 0 mm WeatherDisplay:10.37 W/m2 BKN
17:40 27.6 °C 19.1 °C 1015.5 hPa North 9.7 km/h 9.7 km/h 60% 0 mm WeatherDisplay:10.37 W/m2 BKN
17:45 27.6 °C 19.2 °C 1015.5 hPa North 9.7 km/h 9.7 km/h 60% 0 mm WeatherDisplay:10.37 W/m2 BKN
17:50 27.6 °C 19.2 °C 1015.5 hPa North 9.7 km/h 9.7 km/h 60% 0 mm WeatherDisplay:10.37 W/m2 BKN
17:55 27.6 °C 19.7 °C 1015.5 hPa North 9.7 km/h 9.7 km/h 62% 0 mm WeatherDisplay:10.37 W/m2 BKN
18:00 27.4 °C 19.5 °C 1015.5 hPa North 9.7 km/h 9.7 km/h 62% 0 mm WeatherDisplay:10.37 W/m2 BKN
18:05 27.3 °C 19.7 °C 1015.1 hPa North 9.7 km/h 9.7 km/h 63% 0 mm WeatherDisplay:10.37 W/m2 BKN
18:10 27.2 °C 20.1 °C 1015.1 hPa North 9.7 km/h 9.7 km/h 65% 0 mm WeatherDisplay:10.37 W/m2 BKN
18:15 27 °C 20.1 °C 1015.5 hPa North 9.7 km/h 9.7 km/h 66% 0 mm WeatherDisplay:10.37 W/m2 BKN
18:20 26.8 °C 19.6 °C 1015.1 hPa North 9.7 km/h 9.7 km/h 65% 0 mm WeatherDisplay:10.37 W/m2 BKN
18:25 26.7 °C 19.8 °C 1015.1 hPa North 9.7 km/h 9.7 km/h 66% 0 mm WeatherDisplay:10.37 W/m2 BKN
18:30 26.6 °C 19.9 °C 1015.1 hPa North 9.7 km/h 9.7 km/h 67% 0 mm WeatherDisplay:10.37 W/m2 BKN
18:35 26.5 °C 19.9 °C 1015.5 hPa North 9.7 km/h 9.7 km/h 67% 0 mm WeatherDisplay:10.37 W/m2 BKN
18:40 26.4 °C 19.6 °C 1015.5 hPa North 9.7 km/h 9.7 km/h 66% 0 mm WeatherDisplay:10.37 W/m2 BKN
18:45 26.3 °C 19.7 °C 1015.5 hPa North 9.7 km/h 9.7 km/h 67% 0 mm WeatherDisplay:10.37 W/m2 BKN
18:50 26.2 °C 19.4 °C 1015.5 hPa North 9.7 km/h 9.7 km/h 66% 0 mm WeatherDisplay:10.37 W/m2 BKN
18:55 26.1 °C 19.5 °C 1015.5 hPa North 9.7 km/h 9.7 km/h 67% 0 mm WeatherDisplay:10.37 W/m2 BKN
19:00 26 °C 19.4 °C 1015.5 hPa North 9.7 km/h 9.7 km/h 67% 0 mm WeatherDisplay:10.37 W/m2 BKN
19:05 25.9 °C 19.6 °C 1015.5 hPa North 9.7 km/h 9.7 km/h 68% 0 mm WeatherDisplay:10.37 W/m2 BKN
19:10 25.8 °C 19.5 °C 1015.5 hPa North 9.7 km/h 9.7 km/h 68% 0 mm WeatherDisplay:10.37 W/m2 BKN
19:15 25.7 °C 19.6 °C 1015.5 hPa North 9.7 km/h 9.7 km/h 69% 0 mm WeatherDisplay:10.37 W/m2 BKN
19:20 25.5 °C 19.6 °C 1015.5 hPa North 9.7 km/h 9.7 km/h 70% 0 mm WeatherDisplay:10.37 W/m2 BKN
19:25 25.4 °C 19.7 °C 1015.5 hPa North 9.7 km/h 9.7 km/h 71% 0 mm WeatherDisplay:10.37 W/m2 BKN
19:30 25.3 °C 19.7 °C 1015.5 hPa North 9.7 km/h 9.7 km/h 71% 0 mm WeatherDisplay:10.37 W/m2 BKN
19:40 25.1 °C 19.7 °C 1015.5 hPa North 9.7 km/h 9.7 km/h 72% 0 mm WeatherDisplay:10.37 W/m2 BKN
19:45 24.9 °C 19.7 °C 1015.5 hPa North 9.7 km/h 9.7 km/h 73% 0 mm WeatherDisplay:10.37 W/m2 BKN
19:50 24.8 °C 19.6 °C 1015.5 hPa North 9.7 km/h 9.7 km/h 73% 0 mm WeatherDisplay:10.37 W/m2 BKN
19:55 24.7 °C 19.5 °C 1015.5 hPa North 9.7 km/h 9.7 km/h 73% 0 mm WeatherDisplay:10.37 W/m2 BKN
20:00 24.6 °C 19.6 °C 1015.5 hPa North 9.7 km/h 9.7 km/h 74% 0 mm WeatherDisplay:10.37 W/m2 BKN
20:05 24.5 °C 19.6 °C 1015.5 hPa North 9.7 km/h 9.7 km/h 74% 0 mm WeatherDisplay:10.37 W/m2 BKN
20:10 24.3 °C 19.6 °C 1015.5 hPa North 9.7 km/h 9.7 km/h 75% 0 mm WeatherDisplay:10.37 W/m2 BKN
20:15 24.2 °C 19.7 °C 1015.5 hPa North 9.7 km/h 9.7 km/h 76% 0 mm WeatherDisplay:10.37 W/m2 SCT
20:20 24.1 °C 19.8 °C 1015.8 hPa North 9.7 km/h 9.7 km/h 77% 0 mm WeatherDisplay:10.37 W/m2 SCT
20:25 23.9 °C 19.8 °C 1015.8 hPa North 9.7 km/h 9.7 km/h 78% 0 mm WeatherDisplay:10.37 W/m2 SCT
20:30 23.7 °C 19.6 °C 1015.8 hPa North 9.7 km/h 9.7 km/h 78% 0 mm WeatherDisplay:10.37 W/m2 SCT
20:35 23.6 °C 19.7 °C 1015.8 hPa North 9.7 km/h 9.7 km/h 79% 0 mm WeatherDisplay:10.37 W/m2 SCT
20:40 23.5 °C 19.7 °C 1016.1 hPa North 9.7 km/h 9.7 km/h 79% 0 mm WeatherDisplay:10.37 W/m2 SCT
20:45 23.4 °C 19.6 °C 1016.1 hPa North 9.7 km/h 9.7 km/h 79% 0 mm WeatherDisplay:10.37 W/m2 SCT
20:50 23.4 °C 19.8 °C 1016.1 hPa North 9.7 km/h 9.7 km/h 80% 0 mm WeatherDisplay:10.37 W/m2 SCT
20:55 23.3 °C 19.7 °C 1016.5 hPa North 9.7 km/h 9.7 km/h 80% 0 mm WeatherDisplay:10.37 W/m2 SCT
21:00 23.3 °C 19.7 °C 1016.5 hPa North 9.7 km/h 9.7 km/h 80% 0 mm WeatherDisplay:10.37 W/m2 SCT
21:10 23.2 °C 19.3 °C 1016.5 hPa North 9.7 km/h 9.7 km/h 79% 0 mm WeatherDisplay:10.37 W/m2 SCT
21:15 23.1 °C 19.5 °C 1016.5 hPa North 9.7 km/h 9.7 km/h 80% 0 mm WeatherDisplay:10.37 W/m2 SCT
21:20 23.1 °C 19.6 °C 1016.5 hPa North 9.7 km/h 9.7 km/h 81% 0 mm WeatherDisplay:10.37 W/m2 SCT
21:25 23 °C 19.6 °C 1016.5 hPa North 9.7 km/h 9.7 km/h 81% 0 mm WeatherDisplay:10.37 W/m2 SCT
21:30 22.9 °C 19.4 °C 1016.8 hPa North 9.7 km/h 9.7 km/h 81% 0 mm WeatherDisplay:10.37 W/m2 SCT
21:35 22.8 °C 19.6 °C 1016.5 hPa North 9.7 km/h 9.7 km/h 82% 0 mm WeatherDisplay:10.37 W/m2 SCT
21:40 22.8 °C 19.7 °C 1016.8 hPa North 9.7 km/h 9.7 km/h 83% 0 mm WeatherDisplay:10.37 W/m2 SCT
21:45 22.7 °C 19.7 °C 1016.8 hPa North 9.7 km/h 9.7 km/h 83% 0 mm WeatherDisplay:10.37 W/m2 SCT
21:50 22.7 °C 19.7 °C 1016.8 hPa North 9.7 km/h 9.7 km/h 83% 0 mm WeatherDisplay:10.37 W/m2 SCT
21:55 22.7 °C 19.8 °C 1016.8 hPa North 9.7 km/h 9.7 km/h 84% 0 mm WeatherDisplay:10.37 W/m2 SCT
22:00 22.6 °C 19.7 °C 1017.2 hPa North 9.7 km/h 9.7 km/h 84% 0 mm WeatherDisplay:10.37 W/m2 SCT
22:05 22.5 °C 19.7 °C 1016.8 hPa North 9.7 km/h 9.7 km/h 84% 0 mm WeatherDisplay:10.37 W/m2 SCT
22:10 22.4 °C 19.6 °C 1017.2 hPa North 9.7 km/h 9.7 km/h 84% 0 mm WeatherDisplay:10.37 W/m2 SCT
22:15 22.4 °C 19.6 °C 1017.2 hPa NE 4.8 km/h 9.7 km/h 84% 0 mm WeatherDisplay:10.37 W/m2 BKN
22:25 22.5 °C 19.7 °C 1017.2 hPa ENE 4.8 km/h 4.8 km/h 84% 0 mm WeatherDisplay:10.37 W/m2 BKN
22:30 22.6 °C 19.7 °C 1016.8 hPa ENE 4.8 km/h 4.8 km/h 84% 0 mm WeatherDisplay:10.37 W/m2 BKN
22:35 22.6 °C 19.8 °C 1016.8 hPa ENE 4.8 km/h 4.8 km/h 84% 0 mm WeatherDisplay:10.37 W/m2 BKN
22:40 22.6 °C 19.8 °C 1016.8 hPa ENE 4.8 km/h 4.8 km/h 84% 0 mm WeatherDisplay:10.37 W/m2 BKN
22:45 22.6 °C 19.7 °C 1016.8 hPa ENE 4.8 km/h 4.8 km/h 84% 0 mm WeatherDisplay:10.37 W/m2 BKN
22:50 22.6 °C 19.5 °C 1016.8 hPa ENE 4.8 km/h 4.8 km/h 83% 0 mm WeatherDisplay:10.37 W/m2 BKN
22:55 22.6 °C 19.5 °C 1016.8 hPa ENE 4.8 km/h 4.8 km/h 83% 0 mm WeatherDisplay:10.37 W/m2 BKN
23:00 22.5 °C 19.7 °C 1016.8 hPa ENE 4.8 km/h 4.8 km/h 84% 0 mm WeatherDisplay:10.37 W/m2 BKN
23:05 22.4 °C 19.6 °C 1016.8 hPa ENE 4.8 km/h 4.8 km/h 84% 0 mm WeatherDisplay:10.37 W/m2 BKN
23:10 22.3 °C 19.6 °C 1017.2 hPa ENE 4.8 km/h 4.8 km/h 85% 0 mm WeatherDisplay:10.37 W/m2 BKN
23:15 22.2 °C 19.5 °C 1017.2 hPa ENE 4.8 km/h 4.8 km/h 85% 0 mm WeatherDisplay:10.37 W/m2 SCT
23:20 22.1 °C 19.4 °C 1017.2 hPa ENE 4.8 km/h 4.8 km/h 85% 0 mm WeatherDisplay:10.37 W/m2 SCT
23:25 22 °C 19.3 °C 1017.2 hPa ENE 4.8 km/h 4.8 km/h 85% 0 mm WeatherDisplay:10.37 W/m2 SCT
23:35 21.8 °C 19.4 °C 1017.2 hPa ENE 4.8 km/h 4.8 km/h 86% 0 mm WeatherDisplay:10.37 W/m2 SCT
23:40 21.8 °C 19.3 °C 1017.2 hPa ENE 4.8 km/h 4.8 km/h 86% 0 mm WeatherDisplay:10.37 W/m2 SCT
23:45 21.7 °C 19.3 °C 1017.2 hPa ENE 4.8 km/h 4.8 km/h 86% 0 mm WeatherDisplay:10.37 W/m2 SCT
23:50 21.7 °C 19.1 °C 1017.2 hPa ENE 4.8 km/h 4.8 km/h 85% 0 mm WeatherDisplay:10.37 W/m2 SCT
23:55 21.7 °C 19.1 °C 1017.2 hPa ENE 4.8 km/h 4.8 km/h 85% 0 mm WeatherDisplay:10.37 W/m2 SCT
Piedmont Bend
Compliments of Weather Underground - 4 mb